Location: Felsheim
(48.7267°N, 10.7386°E)
Time: 03:39:46
(UTC+00:00)

STARLINK-1211 - Pass Details

Date: 09 April 2020
Orbit: 549 x 551 km, 53.0° (Epoch: 04 June)

Event Time Altitude Azimuth Distance (km) Brightness Sun altitude
Rises 18:22:59 0° 295° (WNW) 2,720 9.7 -4.4°
Reaches altitude 10° 18:25:13 10° 294° (WNW) 1,825 8.2 -4.8°
Maximum altitude 18:29:22 82° 207° (SSW) 558 3.7 -5.4°
Drops below altitude 10° 18:33:30 10° 120° (ESE) 1,817 5.6 -6.1°
Enters shadow 18:34:03 - 120° (ESE) 2,032 5.9 -6.2°
